[[{"header":{"parameterUnit":"m.s-1","parameterCategory":1,"la1":30.2991,"la2":30.254,"lo1":-89.0895,"lo2":-89.0444,"dy":0.0017,"dx":0.0017,"nx":28,"ny":28,"refTime":"2024-11-25T09:00:00:Z","depth":0,"parameterNumber":2,"parameterNumberName":"U-component_of_WINDS"},"data":[0,0,0,0,0,0,0,0,0,0,0,0,0,0,0,0,0,0,0,0,0,0,0,0,0,0,0,0,0,0,0,0,0,0,0,0,0,0,0,0,0,0,0,0,0,0,0,0,0,0,0,0,0,0,0,0,0,0,-0.435,-0.4351,0,-0.4398,-0.4398,-0.4399,-0.4454,-0.4455,-0.4455,-0.4456,-0.4506,-0.4506,-0.4507,0,0,0,0,0,0,0,0,0,0,0,0,0,-0.4307,-0.4308,-0.435,-0.4351,-0.4351,-0.4398,-0.4398,-0.4399,-0.4454,-0.4455,-0.4456,-0.4457,-0.4505,-0.4506,-0.4507,0,0,0,0,0,0,0,0,0,0,0,0,0,-0.4337,-0.4308,-0.435,-0.4384,-0.4388,-0.4398,-0.4398,-0.4399,-0.4453,-0.4455,-0.4456,-0.4457,-0.4505,-0.4506,-0.4507,-0.4487,0,0,-0.4509,-0.451,0,0,0,0,0,0,0,0,-0.4335,-0.4339,-0.4379,-0.4382,-0.4386,-0.4421,-0.4401,-0.4429,-0.4453,-0.4428,-0.4456,-0.4458,-0.4477,-0.448,-0.4486,-0.449,-0.4492,-0.4509,-0.451,-0.451,-0.4511,0,0,0,0,0,0,0,-0.4333,-0.4337,-0.4369,-0.4379,-0.4384,-0.4397,-0.4403,-0.4407,-0.4445,-0.4431,-0.4435,-0.444,-0.4479,-0.4485,-0.4488,-0.4492,-0.4509,-0.451,-0.4511,-0.4511,-0.4482,-0.4481,0,0,0,0,0,0,-0.4326,-0.4335,-0.4368,-0.4371,-0.4363,-0.4397,-0.4403,-0.4409,-0.4445,-0.4452,-0.4439,-0.4442,-0.4483,-0.4487,-0.449,-0.4469,-0.451,-0.4511,-0.4512,-0.4483,-0.4482,-0.448,0,0,0,0,0,0,-0.4325,-0.4328,-0.4366,-0.4354,-0.436,-0.4396,-0.4402,-0.4409,-0.4415,-0.4451,-0.4458,-0.4438,-0.4484,-0.4488,-0.4487,-0.4472,-0.4511,-0.4512,-0.4485,-0.4483,-0.4481,-0.4428,0,0,0,0,0,0,-0.4323,-0.4328,-0.4321,-0.4353,-0.436,-0.4362,-0.4401,-0.4409,-0.4416,-0.4421,-0.4452,-0.4459,-0.4486,-0.4486,-0.4488,-0.4473,-0.4513,-0.4486,-0.4484,-0.4482,-0.4431,-0.4424,-0.4418,0,0,0,0,0,-0.4322,-0.4304,-0.432,-0.4324,-0.4352,-0.4361,-0.4365,-0.4396,-0.4415,-0.4408,-0.4431,-0.4458,-0.4473,-0.4485,-0.4488,-0.4474,-0.4488,-0.4485,-0.4482,-0.4434,-0.4425,-0.4418,0,0,0,0,0,0,-0.4269,-0.4309,-0.4327,-0.4319,-0.4336,-0.4371,-0.4363,-0.4386,-0.4399,-0.4403,-0.4441,-0.4448,-0.4442,-0.4458,-0.4471,-0.4456,-0.4484,-0.4482,-0.4446,-0.4439,-0.4432,-0.4429,-0.4514,0,0,0,0,0,-0.4256,-0.426,-0.4295,-0.4285,-0.4292,-0.4326,-0.4331,-0.4353,-0.4373,-0.4381,-0.4404,-0.4421,-0.443,-0.4435,-0.4446,-0.4433,-0.4441,-0.4425,-0.4418,-0.4413,-0.4411,-0.4405,-0.4398,-0.4471,-0.4471,-0.4471,0,0,-0.423,-0.4253,-0.4253,-0.4275,-0.4291,-0.4294,-0.4332,-0.4334,-0.4337,-0.4381,-0.4382,-0.4399,-0.4421,-0.4414,-0.4413,-0.4427,-0.4392,-0.4409,-0.4405,-0.4405,-0.4401,-0.4394,-0.4388,-0.4469,-0.447,-0.447,0,0,-0.4185,-0.4202,-0.4196,-0.421,-0.4234,-0.4256,-0.4254,-0.4285,-0.4298,-0.4299,-0.4332,-0.4336,-0.435,-0.4365,-0.4374,-0.4333,-0.4358,-0.4335,-0.4302,-0.4297,-0.4291,-0.4286,-0.4271,-0.4266,-0.4333,-0.4333,-0.4333,0,-0.415,-0.4157,-0.4189,-0.4189,-0.4198,-0.4237,-0.4231,-0.4244,-0.4269,-0.4274,-0.429,-0.4309,-0.4327,-0.4324,-0.4313,-0.432,-0.4319,-0.4332,-0.4289,-0.4284,-0.428,-0.4267,-0.4261,-0.433,-0.433,-0.433,-0.4331,0,-0.4112,-0.4116,-0.4108,-0.4131,-0.4139,-0.4136,-0.4168,-0.4171,-0.4193,-0.4213,-0.4213,-0.4236,-0.4251,-0.4252,-0.4273,-0.4252,-0.426,-0.4282,-0.4311,-0.427,-0.4258,-0.4253,-0.4326,-0.4327,-0.4328,-0.4328,0,0,-0.4036,-0.4077,-0.4073,-0.4084,-0.4112,-0.4116,-0.4114,-0.4129,-0.4131,-0.4147,-0.4147,-0.4157,-0.4177,-0.4188,-0.4211,-0.4206,-0.4171,-0.4228,-0.4229,-0.4217,-0.4149,-0.4133,-0.4126,-0.4188,-0.4187,-0.4186,-0.4147,0,-0.3997,-0.3996,-0.4025,-0.4016,-0.402,-0.4057,-0.4055,-0.4072,-0.4091,-0.4097,-0.4118,-0.4125,-0.4151,-0.4158,-0.4154,-0.4176,-0.4158,-0.418,-0.4188,-0.4188,-0.4182,-0.412,-0.4103,-0.4065,-0.4143,-0.4142,-0.4142,0,-0.395,-0.3963,-0.3954,-0.3982,-0.3985,-0.3983,-0.3999,-0.4004,-0.4024,-0.4038,-0.4049,-0.4074,-0.4075,-0.4101,-0.4102,-0.4116,-0.4121,-0.4132,-0.4131,-0.4134,-0.4163,-0.4121,-0.4054,-0.4048,-0.4135,-0.4135,-0.4136,0,-0.3896,-0.3911,-0.3908,-0.3916,-0.3948,-0.3946,-0.3959,-0.398,-0.3987,-0.4,-0.4005,-0.4018,-0.4025,-0.4035,-0.4063,-0.408,-0.406,-0.4089,-0.4072,-0.4071,-0.4067,-0.4067,-0.4,-0.407,-0.407,-0.407,-0.407,0,-0.3849,-0.3842,-0.3884,-0.3882,-0.3875,-0.3908,-0.3901,-0.3918,-0.3936,-0.3938,-0.3971,-0.3972,-0.4009,-0.4014,-0.4037,-0.4034,-0.4037,-0.4048,-0.4054,-0.4046,-0.4044,-0.405,-0.4053,-0.4068,-0.4069,-0.4069,-0.4069,0,-0.3788,-0.3815,-0.3814,-0.3844,-0.3852,-0.3845,-0.3872,-0.3871,-0.3891,-0.3893,-0.3896,-0.3928,-0.3935,-0.3965,-0.398,-0.3995,-0.3985,-0.3996,-0.3978,-0.3982,-0.3963,-0.3964,-0.3898,-0.3891,-0.3964,-0.3963,-0.3963,0,-0.3756,-0.3752,-0.3781,-0.3785,-0.3796,-0.3802,-0.3808,-0.384,-0.3846,-0.3867,-0.3864,-0.3874,-0.3884,-0.3895,-0.392,-0.3931,-0.3944,-0.3919,-0.3946,-0.3937,-0.3943,-0.3943,-0.3943,-0.3914,-0.3913,-0.3912,-0.3911,0,-0.3697,-0.3711,-0.3719,-0.3731,-0.3738,-0.375,-0.3763,-0.3764,-0.38,-0.3804,-0.3812,-0.382,-0.3835,-0.3844,-0.386,-0.3874,-0.3898,-0.3903,-0.3899,-0.3891,-0.388,-0.3886,-0.3963,-0.3904,-0.3905,-0.3906,-0.3906,-0.3906,-0.365,-0.3648,-0.3668,-0.3676,-0.3689,-0.3701,-0.3701,-0.3721,-0.3729,-0.3743,-0.3761,-0.3767,-0.3786,-0.3809,-0.3821,-0.3826,-0.3839,-0.3835,-0.3833,-0.3832,-0.3827,-0.3879,-0.3829,-0.3829,-0.3829,-0.3829,-0.3829,0,-0.3594,-0.3608,-0.3615,-0.3632,-0.3638,-0.366,-0.3675,-0.3679,-0.3683,-0.3699,-0.3708,-0.3717,-0.3726,-0.3751,-0.3762,-0.3761,-0.3773,-0.3763,-0.3764,-0.3767,-0.3815,-0.3816,-0.3754,-0.3754,-0.3754,-0.3754,-0.3754,-0.3754,-0.3565,-0.3562,-0.3578,-0.3581,-0.3596,-0.3601,-0.3608,-0.3619,-0.3632,-0.364,-0.3647,-0.3663,-0.3682,-0.3695,-0.3705,-0.3712,-0.3715,-0.3701,-0.3712,-0.3756,-0.3764,-0.3771,-0.3772,-0.3702,-0.3702,-0.3664,-0.3664,-0.3664]},{"header":{"parameterUnit":"m.s-1","parameterCategory":1,"la1":30.2991,"la2":30.254,"lo1":-89.0895,"lo2":-89.0444,"dy":0.0017,"dx":0.0017,"nx":28,"ny":28,"refTime":"2024-11-25T09:00:00:Z","depth":0,"parameterNumber":3,"parameterNumberName":"V-component_of_WINDS"},"data":[0,0,0,0,0,0,0,0,0,0,0,0,0,0,0,0,0,0,0,0,0,0,0,0,0,0,0,0,0,0,0,0,0,0,0,0,0,0,0,0,0,0,0,0,0,0,0,0,0,0,0,0,0,0,0,0,0,0,1.6835,1.6835,0,1.6839,1.6839,1.6839,1.6786,1.6785,1.6783,1.6782,1.6785,1.6786,1.6787,0,0,0,0,0,0,0,0,0,0,0,0,0,1.6781,1.6782,1.6835,1.6835,1.6835,1.6839,1.6839,1.6839,1.6786,1.6785,1.6783,1.6781,1.6784,1.6786,1.6788,0,0,0,0,0,0,0,0,0,0,0,0,0,1.6797,1.6783,1.6835,1.681,1.6807,1.6839,1.6839,1.6839,1.6787,1.6785,1.6782,1.678,1.6784,1.6786,1.6788,1.6844,0,0,1.6794,1.6795,0,0,0,0,0,0,0,0,1.6796,1.6799,1.6813,1.6811,1.6809,1.681,1.6821,1.6841,1.6787,1.6795,1.6782,1.6779,1.6795,1.6796,1.6801,1.6844,1.6844,1.6795,1.6796,1.6797,1.6797,0,0,0,0,0,0,0,1.6795,1.6798,1.6837,1.6814,1.6811,1.6797,1.6797,1.6824,1.6807,1.6794,1.679,1.6791,1.6793,1.6799,1.6801,1.6844,1.6794,1.6796,1.6798,1.6798,1.6933,1.6935,0,0,0,0,0,0,1.6797,1.6798,1.6837,1.6837,1.6797,1.68,1.68,1.6812,1.6806,1.6803,1.6793,1.6789,1.6797,1.6799,1.6801,1.6866,1.6797,1.6799,1.68,1.693,1.6933,1.6936,0,0,0,0,0,0,1.6797,1.6801,1.6836,1.6816,1.682,1.6803,1.6817,1.6813,1.6819,1.6806,1.6802,1.6803,1.6795,1.6798,1.6834,1.6865,1.68,1.6802,1.6928,1.6931,1.6934,1.6996,0,0,0,0,0,0,1.6795,1.6801,1.6823,1.6817,1.6821,1.687,1.6819,1.6815,1.6823,1.6817,1.6814,1.6811,1.6794,1.6831,1.6836,1.6867,1.6803,1.6925,1.6929,1.6933,1.6991,1.7001,1.701,0,0,0,0,0,1.6793,1.684,1.6824,1.6829,1.6848,1.6872,1.6874,1.6853,1.6826,1.6847,1.6838,1.6811,1.6861,1.6835,1.684,1.6872,1.6923,1.6928,1.6933,1.6987,1.6999,1.701,0,0,0,0,0,0,1.685,1.6839,1.6821,1.6868,1.6871,1.6863,1.6889,1.6867,1.6878,1.6872,1.6846,1.6845,1.6885,1.6882,1.6853,1.6926,1.6887,1.6893,1.6926,1.6938,1.6947,1.6947,1.6805,0,0,0,0,0,1.6868,1.6889,1.6878,1.692,1.6923,1.6906,1.6915,1.6899,1.6901,1.6902,1.6896,1.6899,1.6915,1.6926,1.6941,1.6991,1.6989,1.7015,1.7025,1.7032,1.7038,1.7064,1.7075,1.6953,1.6953,1.6952,0,0,1.6905,1.6902,1.6917,1.6931,1.6932,1.6954,1.6907,1.6932,1.6948,1.6906,1.6939,1.6935,1.6936,1.698,1.6998,1.6978,1.7072,1.7039,1.7045,1.7047,1.707,1.7082,1.7092,1.6956,1.6955,1.6955,0,0,1.6984,1.6984,1.7019,1.702,1.7022,1.701,1.7018,1.7013,1.7009,1.7042,1.7011,1.7029,1.7057,1.7059,1.7064,1.7143,1.7119,1.7149,1.7197,1.7223,1.7232,1.7241,1.7268,1.7279,1.7154,1.7155,1.7155,0,1.703,1.7062,1.7039,1.7066,1.7073,1.7036,1.7071,1.7073,1.708,1.7085,1.7063,1.7097,1.7096,1.7138,1.7158,1.7163,1.7171,1.7149,1.7233,1.7241,1.7248,1.7274,1.7285,1.7158,1.7158,1.7157,1.7157,0,1.7118,1.714,1.7168,1.7175,1.7185,1.7216,1.7197,1.721,1.7193,1.7183,1.7217,1.7214,1.7226,1.7235,1.7219,1.7276,1.7263,1.7237,1.7198,1.7264,1.7288,1.7298,1.7163,1.7162,1.7161,1.716,0,0,1.7233,1.7226,1.7237,1.7239,1.7238,1.7254,1.7283,1.7296,1.7307,1.7312,1.7335,1.736,1.7336,1.7341,1.7325,1.7347,1.7409,1.7318,1.7318,1.7335,1.7471,1.749,1.7502,1.7393,1.7395,1.7396,1.747,0,1.7309,1.7357,1.7338,1.7388,1.7408,1.7373,1.7398,1.74,1.7391,1.7407,1.7398,1.7415,1.7383,1.7386,1.7406,1.7397,1.7436,1.7392,1.7413,1.7414,1.7414,1.7514,1.7535,1.7605,1.748,1.7481,1.7482,0,1.7404,1.7413,1.7466,1.746,1.7468,1.7491,1.75,1.7515,1.7516,1.7509,1.7515,1.7493,1.752,1.7481,1.7518,1.7488,1.7496,1.7493,1.7495,1.7496,1.7452,1.7518,1.7627,1.7638,1.7497,1.7496,1.7495,0,1.7482,1.7507,1.7542,1.7545,1.754,1.7556,1.7555,1.7554,1.7562,1.757,1.7575,1.7587,1.7593,1.7602,1.7583,1.7557,1.7623,1.7582,1.7617,1.7617,1.7632,1.7631,1.7744,1.7638,1.7638,1.7637,1.7637,0,1.7568,1.7602,1.7576,1.7597,1.7633,1.761,1.7646,1.7641,1.764,1.7659,1.763,1.7648,1.7623,1.7639,1.7625,1.7657,1.766,1.7654,1.765,1.7657,1.7658,1.7661,1.7656,1.764,1.7639,1.7639,1.7638,0,1.7661,1.7646,1.7681,1.7673,1.7671,1.7698,1.7691,1.771,1.77,1.7725,1.7729,1.7713,1.773,1.7713,1.7729,1.7719,1.7762,1.7751,1.7762,1.7759,1.7794,1.7791,1.7913,1.7927,1.7813,1.7814,1.7815,0,1.7717,1.7742,1.7737,1.7747,1.7748,1.7766,1.7774,1.7752,1.7762,1.7764,1.7783,1.7798,1.7808,1.7837,1.7827,1.7839,1.7827,1.7869,1.7829,1.7835,1.7828,1.7826,1.7828,1.7878,1.7879,1.788,1.7881,0,1.7819,1.7809,1.7823,1.7834,1.7845,1.7852,1.7857,1.7868,1.7844,1.7857,1.7874,1.7883,1.7899,1.7914,1.7923,1.792,1.7897,1.7894,1.7902,1.7909,1.7914,1.7912,1.7784,1.7891,1.789,1.7889,1.7889,1.7888,1.7894,1.7914,1.7914,1.7929,1.7931,1.7936,1.7953,1.7945,1.7959,1.7971,1.7957,1.7978,1.7977,1.7987,1.7988,1.8004,1.7986,1.7998,1.8002,1.8005,1.801,1.7912,1.8005,1.8005,1.8005,1.8004,1.8004,0,1.7993,1.7991,1.8006,1.8014,1.8026,1.8003,1.8007,1.8019,1.8038,1.804,1.8051,1.807,1.8084,1.8075,1.8087,1.8102,1.8091,1.8105,1.8104,1.8104,1.8025,1.8017,1.8114,1.8114,1.8114,1.8114,1.8114,1.8114,1.8046,1.8079,1.807,1.8103,1.81,1.812,1.8125,1.8129,1.813,1.8154,1.8165,1.8159,1.8156,1.8168,1.8179,1.8176,1.8182,1.82,1.8193,1.812,1.8109,1.8099,1.8091,1.8202,1.8202,1.827,1.8271,1.8271]}]]